Wind_Gust
24 24 23 23 25 24 24 23 23 24 23 22 20 19 18 16 17 17 17 17 20 19 19 20 20 19 19 18 18 17 17 17 16 16 16 16 16 16 16 16 16 16 16 15 14 14 15 16 16 14 12 12 12 12 13 13 13 13 14 13 14 13 15 15 17 19 17 17 19 22 21 20 25 24 27 28 29 31 26 29 28 32 34 36 36
24 25 23 25 25 25 25 24 25 25 22 21 20 19 16 16 15 16 16 18 19 20 21 19 19 20 19 19 18 18 18 17 16 16 17 17 16 14 14 15 16 16 15 16 15 14 13 15 15 14 13 14 14 15 15 15 16 15 14 14 15 14 13 16 16 18 22 19 20 19 21 21 24 24 27 28 30 31 31 30 29 32 36 38 38
24 24 24 24 25 25 25 25 25 25 23 21 19 19 17 16 16 17 18 19 19 20 20 20 20 20 19 19 19 18 18 18 16 16 17 17 16 15 15 15 15 16 16 16 16 14 13 13 13 12 11 12 12 14 13 14 15 16 14 14 14 14 14 13 16 18 20 22 21 23 22 24 24 27 26 27 29 31 32 30 30 31 32 37 39
26 25 25 25 27 26 25 25 27 26 23 22 20 18 19 17 17 17 18 19 21 19 20 21 20 19 19 19 19 19 19 17 18 18 18 17 17 17 16 15 15 15 15 15 15 14 14 13 13 12 12 13 13 14 15 13 13 15 14 14 14 15 13 13 14 17 19 22 22 24 24 24 25 25 26 27 30 31 30 29 27 30 34 39 38
26 26 26 26 25 26 25 26 27 24 21 21 20 19 18 17 16 17 18 20 20 20 20 20 20 20 19 20 20 19 19 19 19 18 17 16 16 16 16 16 15 15 14 15 11 14 14 13 13 13 13 13 13 14 15 14 14 15 16 16 16 16 15 15 16 16 18 20 21 21 22 22 25 25 27 31 29 29 28 30 31 30 31 36 38
26 27 28 28 27 25 26 26 26 25 23 21 20 18 17 16 16 16 19 21 20 20 21 20 20 20 20 20 20 20 20 19 19 18 18 17 16 15 16 16 15 16 15 14 14 13 13 14 13 14 14 14 14 14 14 14 14 15 16 16 18 16 15 15 16 16 17 19 19 24 21 25 25 26 28 30 32 33 31 30 28 28 31 36 38
26 28 29 27 28 26 26 26 27 24 23 21 19 18 17 17 17 18 19 20 21 21 21 20 19 19 20 20 20 20 20 19 19 18 18 17 17 17 16 16 15 14 14 15 14 14 14 14 14 14 14 14 15 15 15 13 13 14 15 16 17 17 17 16 17 17 17 19 19 20 23 22 24 28 27 28 29 30 33 34 33 31 31 36 38
26 27 27 25 25 26 26 25 26 23 22 21 19 17 17 17 17 18 19 20 21 21 21 21 19 19 19 19 20 19 19 19 19 19 18 17 17 16 16 15 15 14 14 14 14 14 14 14 14 14 14 15 15 15 16 16 14 14 16 16 17 17 17 17 17 19 19 19 20 22 22 24 24 24 26 27 29 28 29 32 35 36 37 36 34
29 28 26 25 24 25 25 24 21 22 21 20 19 18 18 17 17 19 19 19 20 21 21 21 21 20 20 19 20 19 19 18 18 18 18 18 17 16 16 16 15 15 15 15 15 15 15 14 14 14 14 10 9 8 8 9 16 15 15 15 16 16 17 18 18 19 19 19 20 21 22 24 26 27 29 31 32 35 34 30 32 31 34 35 34
28 27 26 25 25 23 21 20 21 21 20 20 19 19 19 19 19 19 20 20 20 21 21 21 21 21 21 21 19 18 18 17 12 9 7 18 17 16 16 16 15 15 15 15 14 15 15 15 14 10 10 10 9 7 5 4 6 12 15 15 16 17 17 17 19 19 20 19 21 23 24 25 27 27 27 28 29 30 30 30 30 31 31 32 31
28 26 25 23 23 22 22 22 22 22 20 20 19 20 20 19 20 20 20 20 21 21 22 23 22 21 21 21 20 18 17 16 12 11 9 7 14 15 16 15 14 14 15 14 15 14 14 16 14 14 17 15 16 11 10 9 8 6 7 8 9 14 16 17 17 17 20 19 20 21 23 24 25 26 26 29 29 30 32 31 30 33 35 38 41
27 26 24 24 24 24 23 23 23 22 22 22 22 22 21 21 21 21 21 21 21 21 22 22 22 21 21 21 20 18 16 13 12 8 5 6 8 12 15 15 14 14 14 14 14 13 13 12 11 11 13 13 13 18 15 12 11 11 11 11 10 9 7 12 15 17 18 19 20 20 22 24 26 26 28 29 30 30 30 29 29 33 34 36 39
27 25 24 24 26 25 25 25 24 23 23 23 23 22 23 23 23 23 22 21 21 23 23 23 22 21 21 21 20 18 17 14 12 9 6 6 7 11 17 14 15 13 13 14 13 14 14 13 11 11 12 8 12 14 14 16 13 15 14 14 13 12 12 13 11 13 16 17 18 19 21 23 24 25 26 28 28 29 29 29 30 31 31 34 38
25 26 26 25 25 25 26 26 25 25 25 25 24 24 24 24 22 21 22 22 23 24 23 22 21 21 20 20 18 16 18 14 13 11 8 8 9 13 14 14 13 13 12 13 12 11 12 13 14 12 11 12 14 15 15 13 12 14 15 18 19 20 15 15 15 15 16 17 17 19 19 19 22 23 23 24 28 30 31 30 29 31 32 33 31
25 25 25 26 25 26 27 27 27 27 27 26 26 25 25 24 24 23 23 23 24 24 24 22 20 20 19 19 19 16 18 16 13 12 10 9 10 13 13 12 13 12 12 11 11 12 11 9 9 10 11 12 14 13 16 15 12 11 11 11 11 11 16 15 16 16 15 15 16 17 18 17 18 20 21 24 25 27 28 30 29 27 32 28 25
28 26 26 27 28 28 29 28 29 28 29 28 28 26 25 25 24 23 22 21 21 22 23 23 21 20 19 20 20 19 19 19 14 13 11 11 10 16 14 14 13 14 13 12 13 13 12 11 10 10 11 12 8 6 10 17 15 12 11 11 11 10 12 6 8 10 13 15 16 17 18 19 15 21 22 23 24 27 27 27 24 26 30 31 32
31 29 28 29 30 31 30 29 29 28 29 28 28 27 25 25 24 23 21 21 21 22 24 24 22 21 20 21 20 19 21 19 16 14 12 12 10 19 14 16 14 14 14 13 13 12 12 11 10 12 11 13 7 7 9 13 15 12 12 12 13 13 16 13 13 15 15 15 16 18 19 20 21 22 21 21 20 22 27 27 28 31 29 32 32
31 31 30 30 30 31 29 28 28 28 27 27 26 24 24 25 24 22 21 22 22 22 22 23 22 22 22 23 22 19 21 19 17 16 13 13 14 19 15 16 15 14 15 14 13 14 12 10 11 10 13 13 5 5 9 15 12 13 12 14 15 17 19 20 19 18 13 17 19 20 21 19 19 21 21 19 19 15 26 28 30 30 30 29 35
31 30 29 29 29 29 27 27 27 27 27 25 24 22 25 24 24 21 22 21 21 21 22 22 22 22 23 22 13 18 21 20 18 16 15 15 19 22 17 16 15 15 16 15 12 14 15 10 8 11 11 11 5 4 7 13 12 12 13 14 16 16 18 20 20 21 22 22 21 21 19 13 17 19 18 10 10 13 23 24 27 29 30 30 30
29 27 27 28 27 26 25 25 25 25 24 23 22 22 22 21 22 21 20 21 22 22 22 22 23 23 23 23 22 21 21 24 22 17 17 15 17 23 19 15 16 16 15 18 15 14 16 16 12 7 9 7 4 4 7 7 14 12 13 14 15 16 18 19 18 20 21 20 20 19 18 19 19 19 20 21 21 19 21 23 24 27 28 29 29
27 27 26 26 25 24 23 23 24 23 23 23 22 22 22 21 21 21 21 22 21 21 22 21 23 22 22 22 22 22 21 24 22 18 17 17 17 18 21 17 15 17 16 16 17 16 17 18 17 12 10 9 6 5 6 7 9 15 12 13 12 14 14 18 19 13 19 17 17 18 19 19 20 21 22 23 23 23 23 21 23 24 27 28 29
26 25 26 24 24 23 21 21 21 21 22 24 23 22 21 21 22 21 21 20 21 21 21 20 22 22 21 22 20 22 17 19 22 19 17 17 16 17 20 18 15 15 17 16 17 17 17 18 19 15 13 11 8 7 6 7 9 16 12 4 8 10 16 18 20 20 18 19 20 19 20 20 21 22 23 24 24 24 25 25 24 24 24 24 27
24 23 23 22 22 22 21 21 20 21 22 22 23 22 21 22 21 22 21 20 22 21 22 21 21 22 21 22 20 22 20 20 18 20 17 17 18 16 17 16 14 19 15 15 15 15 15 15 18 16 14 11 9 8 6 7 11 10 3 6 9 12 13 19 19 18 18 18 19 20 19 21 22 22 23 24 24 24 26 26 25 25 24 23 23
25 24 20 20 20 20 21 23 22 21 22 23 23 23 22 22 22 23 22 21 23 23 23 22 22 22 22 22 20 22 21 21 16 18 18 17 15 16 12 10 10 15 18 15 15 12 16 16 16 14 12 11 8 7 8 7 14 9 9 9 12 12 19 21 17 17 18 18 19 20 20 21 22 22 23 23 24 23 24 24 25 25 25 25 24
26 24 22 20 18 18 20 23 23 22 23 23 23 24 22 22 23 22 21 22 22 23 23 23 23 22 22 22 21 22 21 21 21 19 17 15 14 13 9 7 9 6 16 13 19 16 15 17 16 12 10 8 7 8 10 13 15 14 13 14 13 20 19 17 16 18 18 18 19 20 21 21 22 22 22 21 20 20 21 23 23 23 24 25 24
25 25 24 22 22 22 22 22 22 23 23 24 23 21 21 22 22 23 22 22 23 23 23 24 23 22 22 22 21 21 21 20 21 21 15 13 11 10 8 7 8 7 12 16 9 10 10 12 11 9 8 9 15 16 17 14 13 17 17 15 18 20 16 15 16 18 18 19 19 21 21 22 22 22 20 21 22 23 23 25 25 24 25 25 27
25 26 26 24 21 20 21 21 22 22 23 23 23 22 23 23 23 22 23 23 23 23 23 23 23 23 22 22 21 21 22 21 21 22 24 23 23 17 15 15 6 5 14 17 11 14 13 12 10 8 7 5 11 9 11 11 17 20 22 23 23 20 12 12 15 16 16 18 19 20 21 21 21 20 22 23 23 23 22 23 25 25 26 25 25
26 25 28 27 24 25 25 16 21 23 24 25 24 24 24 23 24 23 24 23 23 23 22 23 23 22 23 22 22 22 23 22 23 24 25 25 24 25 24 22 21 21 22 20 19 19 17 8 8 14 16 17 18 19 19 18 18 17 19 15 15 12 9 10 13 18 15 17 18 19 19 20 21 22 22 23 24 23 22 24 24 25 25 25 27
23 23 26 28 26 21 21 25 23 22 22 21 22 22 24 23 24 22 20 21 21 21 22 21 21 20 21 22 22 23 23 24 23 12 22 13 22 24 25 23 22 23 14 6 18 17 16 17 18 19 18 18 18 19 19 20 19 19 15 13 13 12 12 15 14 14 15 16 17 18 19 20 21 21 22 23 24 24 22 24 23 24 25 24 26
23 25 27 28 27 24 22 24 22 22 25 24 23 21 11 9 11 21 24 12 13 12 8 17 19 19 20 18 19 19 22 20 15 18 15 15 10 10 11 10 10 13 11 8 9 16 18 18 18 18 19 19 18 15 15 14 12 11 12 5 13 15 12 13 12 13 15 16 16 17 18 19 20 21 22 23 23 23 23 18 24 24 25 26 25
25 26 27 27 27 25 24 25 23 22 23 24 23 23 19 15 13 15 13 9 10 11 10 11 16 17 13 17 20 22 20 22 20 16 15 14 14 13 13 12 13 10 7 15 13 14 13 14 16 18 17 17 13 13 12 12 10 10 13 13 13 10 8 13 11 12 13 11 13 15 16 17 19 20 21 21 22 23 23 22 23 24 25 25 26
27 29 29 28 26 22 25 25 23 24 24 25 26 27 25 24 14 12 11 13 12 11 12 13 15 16 17 16 14 19 15 16 18 18 16 16 14 13 12 12 10 10 7 6 11 16 16 15 14 14 17 15 12 13 14 14 12 13 14 12 11 11 12 13 10 14 13 12 11 11 13 15 18 19 20 20 18 21 23 23 23 24 24 24 25
24 26 28 28 28 23 24 28 24 24 25 26 29 28 28 25 27 24 14 11 11 10 9 10 12 15 17 16 16 14 13 13 15 15 15 16 15 12 12 11 11 9 7 8 15 15 16 18 18 17 17 13 15 15 16 16 16 15 14 13 11 13 13 11 10 15 12 13 12 13 12 13 14 17 13 15 18 18 20 19 23 23 24 24 23
22 24 27 27 28 28 23 26 26 25 25 25 29 30 29 26 25 25 25 21 14 8 4 9 13 12 13 12 11 13 18 16 15 14 14 14 15 14 11 12 8 9 9 16 18 17 19 18 17 17 17 16 16 14 14 14 14 14 14 13 13 13 13 11 14 13 10 13 12 11 11 14 16 16 16 17 17 17 17 18 21 20 21 22 22
21 13 15 18 25 27 27 26 26 26 25 26 29 28 26 26 24 25 26 25 25 24 23 20 13 14 16 10 9 12 16 17 16 15 15 13 13 14 12 14 10 14 16 19 21 21 19 18 18 16 16 15 15 14 13 13 14 13 14 14 14 13 13 13 11 13 14 14 13 14 15 16 19 16 15 16 17 17 17 16 17 20 22 21 21
19 17 18 22 24 24 25 26 24 23 23 23 25 27 25 25 26 25 23 22 23 24 23 23 23 11 15 12 13 13 14 13 14 15 14 15 16 16 18 16 16 21 21 22 23 23 21 19 17 17 16 16 15 14 14 14 14 15 16 16 14 14 13 13 11 11 10 15 14 14 15 15 15 14 15 16 18 18 17 16 16 15 17 19 17
22 21 20 21 24 25 21 19 22 22 14 19 22 26 25 24 23 24 23 24 23 24 24 23 22 20 14 16 15 11 13 13 13 13 15 16 20 18 17 20 21 21 20 20 21 21 22 21 20 19 17 16 15 15 15 15 15 15 12 16 16 16 15 14 12 11 14 16 16 16 16 15 14 13 14 15 16 16 17 17 15 14 14 14 12
23 24 24 23 22 26 26 23 21 12 15 18 21 25 22 22 24 23 22 24 25 24 24 23 15 23 24 23 18 15 16 10 13 10 9 9 12 13 18 19 19 19 20 21 20 20 20 19 18 18 18 17 16 16 17 16 16 16 16 16 14 13 6 11 9 18 13 16 17 15 14 14 15 15 14 16 16 16 17 15 16 18 17 14 15
21 16 15 17 13 23 24 24 21 20 19 20 21 22 20 22 22 23 24 22 22 22 22 22 23 22 24 24 23 19 20 19 17 16 15 14 16 17 19 21 20 20 20 21 19 20 20 19 17 18 16 16 16 17 17 16 16 17 16 13 13 12 12 14 13 13 15 15 15 15 16 16 16 15 15 15 15 14 15 15 15 15 17 18 17
22 20 17 18 18 18 18 18 18 19 19 22 21 21 21 22 24 24 23 23 23 22 22 21 22 22 24 25 25 26 26 23 20 19 16 16 18 22 24 23 21 20 20 19 18 19 18 19 18 18 18 17 17 17 16 16 15 13 14 13 14 14 14 14 16 15 15 15 16 16 16 14 15 14 14 15 15 15 15 16 16 15 16 15 17
19 19 15 16 15 19 16 19 18 20 18 20 19 20 21 21 20 20 22 22 21 21 21 19 19 20 22 22 20 22 25 23 21 20 20 21 22 22 22 22 22 22 20 20 19 19 20 19 18 18 18 18 17 17 16 16 13 13 13 13 14 14 15 14 14 16 16 15 15 15 15 15 15 15 15 15 11 14 15 15 16 16 16 16 16
18 19 21 20 18 18 18 19 19 17 14 15 20 20 19 19 20 20 19 19 17 18 20 20 21 20 18 24 23 24 24 22 21 21 21 21 22 22 22 23 23 21 20 20 20 20 19 19 18 19 17 16 14 14 13 15 14 13 14 14 14 15 16 17 15 13 14 16 14 14 13 14 15 15 15 9 15 15 16 17 17 17 18 18 17
17 18 20 20 20 19 18 18 18 18 16 17 18 12 15 18 19 18 18 17 18 18 19 20 19 18 21 21 25 23 23 23 14 23 22 22 22 21 23 23 21 20 21 20 20 20 19 19 18 19 16 17 16 14 14 14 14 14 16 14 15 15 15 17 18 17 16 15 15 12 10 12 14 16 16 15 15 17 17 16 16 17 16 16 16
18 18 19 19 19 17 15 16 17 17 17 13 13 15 17 17 17 18 19 19 19 18 19 19 18 19 19 20 21 22 24 25 23 23 22 19 19 19 21 20 20 20 21 21 21 22 21 17 15 15 16 17 17 16 17 15 15 14 14 16 16 15 16 16 17 16 17 17 16 15 15 14 14 17 15 15 16 17 18 15 16 17 18 18 17
18 19 19 20 19 18 18 16 16 15 13 13 15 16 16 16 18 18 18 19 18 18 20 20 20 20 18 20 21 22 22 23 19 19 21 20 19 18 19 19 19 20 21 20 21 21 19 14 12 11 11 15 17 18 18 18 18 18 15 16 17 19 18 16 15 14 14 11 15 15 16 17 16 18 18 18 17 17 21 17 18 12 16 16 17
19 19 20 20 21 20 20 19 17 18 18 18 18 18 18 19 18 18 18 18 18 18 18 19 20 20 18 20 20 20 22 22 22 20 16 17 18 19 19 19 19 19 18 16 17 18 15 14 13 13 13 13 18 18 18 18 18 19 20 20 20 19 21 20 18 14 12 10 13 14 15 15 16 16 13 17 19 18 16 14 13 15 16 15 16
16 16 17 18 19 19 19 19 20 19 20 20 19 20 19 18 19 18 17 18 18 17 19 17 17 18 19 17 17 18 18 19 18 17 19 19 19 19 19 19 20 19 18 18 17 16 13 13 13 12 11 11 14 16 17 17 20 21 21 22 21 20 24 20 16 13 12 11 12 13 14 14 15 15 15 15 15 15 13 16 15 13 15 17 18
16 16 16 15 16 16 18 18 19 14 19 19 20 19 18 19 20 19 18 18 16 16 16 17 18 18 17 18 17 17 17 17 17 16 16 16 17 18 17 15 12 14 14 12 13 13 12 11 12 11 11 9 9 12 15 17 16 20 20 22 19 13 15 12 13 14 12 11 11 11 11 14 14 14 14 12 12 14 15 17 15 16 14 16 16
17 18 17 17 16 17 17 19 18 20 20 19 20 20 18 19 18 18 18 18 18 17 18 18 19 19 18 18 18 18 17 15 15 16 17 17 16 16 18 17 13 16 14 14 14 12 14 13 11 10 11 10 11 13 15 16 18 17 20 14 13 11 11 11 10 14 12 12 11 12 12 13 13 12 13 13 13 13 14 12 13 15 16 14 16
18 18 18 17 17 16 17 17 18 19 19 19 19 20 20 19 19 18 19 19 19 19 19 18 17 16 15 15 15 15 15 17 18 18 18 18 18 18 18 19 18 18 16 14 15 13 12 12 13 11 11 11 11 14 14 15 16 14 12 16 11 11 10 8 7 9 13 11 12 12 12 12 11 12 12 12 12 11 12 13 12 12 14 16 16
16 17 18 19 18 19 19 18 17 18 18 18 19 19 19 20 19 18 17 16 16 17 18 16 16 15 15 16 15 17 18 18 17 18 18 18 18 18 18 17 17 16 17 18 17 13 15 15 11 10 10 9 9 10 12 11 14 14 13 12 12 12 11 10 9 8 9 8 11 12 12 11 10 11 11 12 11 12 11 12 13 13 15 16 16
Wind_Speed
12 11 9 11 12 13 13 12 14 13 14 13 11 11 10 9 9 8 9 8 9 9 9 10 9 9 9 8 8 8 8 8 7 7 7 7 7 7 7 7 7 6 6 6 5 5 5 6 5 4 3 3 2 2 2 2 2 3 4 4 5 5 6 6 6 7 7 7 7 8 9 10 11 12 13 13 14 14 15 14 14 13 12 11 14
12 11 10 10 13 13 14 13 13 13 13 11 11 10 9 8 8 8 8 8 9 9 10 9 9 9 9 9 9 9 8 8 8 7 7 8 7 6 7 7 7 6 5 6 5 4 4 6 6 5 5 4 4 4 4 4 4 4 4 5 5 5 5 6 6 7 9 8 8 8 8 10 10 11 12 13 14 15 15 14 13 13 12 12 12
11 12 12 13 12 13 13 13 13 15 13 11 11 10 9 8 8 8 9 8 9 9 9 9 10 9 9 9 9 9 9 8 7 8 8 8 8 7 6 7 7 6 7 6 6 5 5 5 5 4 2 3 3 4 3 4 5 5 5 4 4 5 5 5 6 7 9 8 8 9 9 9 10 12 13 12 14 15 16 14 14 13 11 11 12
9 12 13 15 16 14 14 14 15 15 13 11 12 11 10 9 8 7 8 8 10 9 10 10 10 9 9 9 9 9 9 8 8 8 9 8 8 8 7 7 6 6 6 6 6 5 5 5 4 4 3 4 3 3 4 3 3 5 5 4 4 5 5 5 5 6 7 9 8 9 9 9 9 11 11 11 13 14 14 13 12 13 13 12 13
10 13 14 15 15 15 15 15 16 14 12 11 12 11 11 9 8 9 8 9 10 10 10 10 9 9 8 9 9 9 9 9 9 9 8 7 8 8 7 7 6 6 5 5 5 5 4 5 5 4 4 3 3 4 4 4 4 5 5 5 5 5 5 5 6 6 7 8 8 7 8 8 9 10 11 12 12 12 13 14 14 13 13 13 12
12 14 14 13 13 14 15 15 15 14 13 12 12 10 9 9 9 7 9 11 10 10 10 9 9 10 9 10 9 9 9 9 9 9 9 8 7 7 7 6 6 6 6 5 5 4 4 5 5 5 4 4 4 4 4 5 4 5 6 6 6 5 6 6 6 6 7 7 7 8 8 9 9 10 12 13 13 13 13 13 14 13 13 13 13
14 15 17 16 16 16 15 15 14 13 13 11 10 10 9 10 9 9 9 10 11 10 10 10 9 9 10 9 10 9 9 9 9 9 9 8 8 8 7 7 6 5 5 6 5 5 5 5 5 5 5 5 4 5 5 4 3 5 5 6 6 6 6 6 6 7 7 7 7 8 8 8 9 11 11 13 13 13 14 14 13 12 12 13 14
15 16 16 14 14 15 14 15 14 12 12 11 10 10 9 9 9 9 9 11 10 11 11 11 9 9 9 9 9 9 9 9 9 9 9 8 8 8 7 7 6 6 6 6 5 5 5 5 6 6 6 5 5 5 6 5 4 4 5 5 6 6 6 6 6 7 7 7 7 8 8 9 9 9 10 11 12 12 11 13 15 14 14 13 13
16 16 15 14 14 14 14 13 11 12 12 11 10 10 9 9 9 9 9 10 9 10 10 11 11 10 10 9 10 9 8 8 8 8 9 9 8 8 8 7 7 6 6 6 5 5 5 6 6 7 6 5 4 4 4 4 4 4 5 6 7 6 6 6 6 7 7 7 7 8 8 9 10 11 12 12 13 14 14 13 13 13 13 14 13
16 15 15 14 14 13 12 10 11 12 11 10 11 10 9 9 8 9 10 10 10 10 11 11 10 11 11 11 10 8 8 6 6 7 6 8 8 7 7 7 7 7 6 6 6 6 6 6 6 7 6 6 6 5 5 2 2 3 4 5 6 6 6 6 6 6 7 7 7 8 9 9 10 11 11 12 13 13 14 13 13 14 13 13 12
15 14 14 14 13 12 11 11 11 12 11 10 11 11 10 8 8 9 10 10 10 10 10 11 10 10 11 10 10 8 7 6 10 10 8 6 8 7 7 7 6 6 6 6 6 6 7 8 6 7 8 7 6 8 8 7 7 6 6 5 4 4 6 6 6 6 7 7 7 8 8 10 11 11 11 12 13 14 13 13 13 13 14 15 16
15 15 13 12 12 12 11 12 12 12 12 12 12 11 10 10 9 10 10 10 10 10 10 11 10 10 9 10 9 8 7 10 11 8 5 6 6 3 7 6 6 6 6 6 6 5 6 5 4 3 2 1 3 8 8 9 10 9 8 8 7 7 6 4 5 6 7 7 7 8 9 9 11 10 11 12 13 13 13 13 13 14 14 15 14
15 14 12 13 14 13 12 12 12 12 12 12 11 11 11 11 10 11 11 10 10 11 11 11 10 10 9 10 9 8 7 10 10 7 4 3 2 4 7 6 7 6 6 6 6 6 6 5 5 4 4 4 5 1 2 8 10 10 10 9 9 9 9 9 8 5 6 7 6 8 8 9 10 10 11 12 13 14 14 13 13 14 13 14 14
13 13 14 12 13 13 14 14 13 13 13 12 12 12 12 11 11 11 11 10 10 10 11 11 10 10 10 9 8 7 7 8 11 7 3 3 3 6 4 7 6 6 5 5 4 5 6 6 6 5 4 3 3 3 3 3 2 4 6 8 8 10 10 11 11 12 10 6 7 7 8 8 8 10 11 11 13 13 14 14 15 15 14 15 15
13 13 13 12 12 12 13 13 14 14 14 13 12 13 12 12 12 11 11 11 10 10 11 11 10 9 9 9 7 7 8 13 12 9 5 6 3 4 3 5 5 5 5 5 5 5 3 2 3 4 4 3 4 4 5 4 4 2 2 2 2 2 8 6 3 4 3 4 6 6 7 7 8 10 10 10 11 11 13 15 15 14 14 14 11
13 12 12 13 13 13 14 14 14 13 14 14 15 14 13 13 13 12 11 10 9 10 10 10 10 10 9 9 9 8 7 12 11 10 8 7 4 4 4 6 6 6 6 5 5 5 5 4 4 4 4 4 4 1 3 5 6 3 2 2 2 1 1 1 6 8 7 5 5 7 7 9 11 11 11 10 10 11 12 12 11 12 13 13 13
13 14 13 13 14 15 15 16 16 16 16 16 15 14 14 14 12 11 11 10 10 10 10 10 9 9 10 9 9 8 9 10 12 11 9 9 4 5 5 6 6 6 6 6 6 5 6 4 3 5 5 4 3 3 4 5 7 2 2 2 1 2 4 2 8 11 10 12 14 15 16 17 17 18 17 17 12 10 10 11 12 13 13 13 12
14 14 14 16 15 16 15 15 15 16 15 15 14 12 12 12 12 11 10 10 10 10 10 9 9 10 10 10 10 9 10 11 13 12 11 10 7 7 6 7 7 6 6 6 6 6 5 6 8 2 6 5 4 2 5 7 5 1 2 2 2 3 4 6 5 3 12 14 16 16 17 16 16 16 16 15 16 10 7 12 13 12 13 12 13
17 16 16 16 16 16 15 13 13 13 14 13 13 13 13 13 12 11 10 11 10 10 10 10 10 9 10 10 10 10 11 12 14 13 12 11 9 8 7 6 7 7 7 6 5 6 6 4 4 6 6 6 3 3 5 6 4 1 3 2 3 4 5 8 7 8 8 8 8 7 6 6 5 6 8 9 7 5 9 11 11 11 12 13 13
16 15 15 15 14 11 12 14 13 13 13 13 12 11 12 11 11 11 10 10 10 10 10 10 10 9 10 10 10 10 11 12 13 14 14 12 12 9 8 6 7 8 7 7 6 7 7 6 5 6 8 6 3 3 6 4 5 3 3 3 4 4 6 8 8 8 9 9 8 8 8 8 7 8 7 8 9 10 10 11 10 11 11 12 12
15 15 14 14 13 13 12 12 13 12 11 11 10 10 10 10 10 9 9 8 9 9 10 9 9 9 10 11 10 11 9 13 13 15 14 14 13 12 9 8 6 7 7 7 7 7 7 8 7 8 9 8 6 5 5 7 4 5 2 3 3 4 6 7 9 11 9 8 7 7 7 8 8 8 8 9 9 10 10 10 10 11 11 11 12
14 14 14 13 12 11 11 11 11 10 11 11 11 10 9 10 10 10 9 9 11 10 11 9 10 9 10 11 10 11 10 15 12 14 14 14 13 14 9 9 6 4 8 7 7 7 8 8 9 10 11 9 7 6 5 6 7 5 3 2 4 7 6 8 9 9 6 7 7 7 7 8 8 9 9 9 10 10 10 10 11 11 11 10 11
12 13 13 12 12 12 11 12 10 8 10 11 11 10 9 10 10 9 10 9 10 10 11 10 10 10 10 10 9 10 10 10 15 13 14 14 15 13 14 11 10 9 5 7 7 6 7 6 9 12 11 10 8 7 6 6 7 3 2 3 6 9 7 7 9 6 6 7 7 7 7 8 8 9 9 10 10 10 10 10 11 12 11 10 11
12 11 10 11 12 11 12 12 10 9 11 11 10 10 10 9 9 8 9 9 9 10 10 10 10 10 10 10 9 10 10 8 12 15 12 14 13 14 10 9 9 7 8 5 7 5 7 8 9 12 10 9 7 7 7 6 6 5 7 8 10 8 7 9 8 5 7 6 6 7 7 7 8 8 9 10 10 10 9 10 11 12 11 11 12
12 12 11 11 10 9 9 10 11 11 10 11 11 10 11 10 9 9 9 9 9 10 10 10 10 10 10 10 10 10 9 9 9 12 15 13 12 11 8 6 8 4 6 3 10 6 11 15 14 10 9 8 6 5 7 9 12 12 11 12 9 7 8 6 4 5 6 6 6 7 7 7 7 8 8 9 9 9 9 9 10 10 11 11 11
13 14 12 11 11 11 10 10 11 11 11 10 10 10 10 10 9 9 10 9 9 10 10 10 10 10 10 10 10 10 10 9 9 10 10 10 9 8 7 7 7 5 5 6 2 3 3 10 8 7 5 3 4 6 7 6 11 14 14 11 7 8 7 4 4 5 6 6 6 7 7 7 7 8 8 8 9 10 9 10 10 10 10 11 11
14 13 13 12 12 11 10 8 8 10 11 11 10 10 10 10 10 10 10 10 10 10 10 10 10 10 10 10 10 9 9 9 9 10 11 9 9 7 6 5 4 4 6 6 4 5 7 5 3 4 3 4 8 8 9 6 5 8 9 8 8 9 5 2 4 5 5 5 6 6 6 7 7 7 8 8 9 10 9 10 10 10 11 11 11
12 13 13 11 10 11 10 12 12 10 11 11 11 10 10 10 10 10 10 10 9 9 10 10 10 10 10 9 9 9 9 9 9 10 10 11 11 10 11 10 9 9 9 8 6 6 5 4 2 4 6 6 7 7 8 8 8 8 8 6 6 6 4 8 9 6 6 5 5 5 6 6 7 7 8 8 9 10 9 9 10 10 10 11 10
10 12 12 11 11 10 9 10 9 9 10 10 9 10 11 10 9 9 10 10 10 10 10 8 8 8 9 8 9 9 9 10 9 9 10 11 11 11 11 11 10 9 9 4 6 6 6 6 6 7 7 7 5 8 8 8 9 9 8 5 5 4 4 3 3 3 3 4 5 6 6 6 7 7 8 8 9 10 9 9 9 9 10 10 11
12 12 11 11 11 11 10 10 10 10 10 10 9 5 10 7 1 8 11 6 11 10 8 1 5 9 9 6 1 5 7 6 13 15 12 12 7 3 7 10 9 6 9 5 5 6 7 7 7 7 8 8 8 6 6 6 5 4 5 3 3 6 3 3 4 3 2 4 5 5 5 6 7 7 8 9 9 9 9 9 10 9 9 10 11
12 11 10 10 11 10 10 11 10 10 11 10 9 10 8 5 11 12 8 8 9 10 9 10 14 14 5 4 8 17 13 17 15 14 12 11 10 9 10 10 11 8 6 9 4 4 3 5 6 8 8 8 5 5 5 4 3 3 5 6 6 3 3 5 4 2 3 3 4 4 5 5 7 7 8 8 9 9 9 9 9 9 9 10 10
11 12 11 11 10 11 11 11 10 11 11 11 11 11 10 9 4 10 10 8 10 10 10 11 13 13 14 10 9 8 11 14 16 16 15 13 11 10 10 10 8 8 4 2 4 5 4 4 4 5 7 6 4 6 6 5 5 5 6 5 5 5 4 6 3 3 5 4 2 3 4 5 6 7 8 8 8 8 8 9 9 9 9 9 9
11 12 12 12 12 11 10 11 10 11 12 13 12 11 10 9 9 6 4 7 9 8 7 9 11 13 14 13 11 12 11 11 13 13 13 14 13 11 10 9 8 6 6 2 4 4 5 7 8 8 8 5 6 5 6 7 7 7 6 5 4 5 6 4 2 5 5 6 3 4 3 4 4 7 5 6 7 6 7 7 8 8 9 9 8
12 11 12 12 12 12 11 11 11 11 11 11 11 12 11 10 11 10 9 7 4 4 4 2 4 11 12 9 8 11 12 13 13 13 12 13 13 12 10 6 6 6 4 2 4 4 6 7 7 7 7 6 6 6 6 6 6 6 6 5 5 5 6 5 6 5 3 3 4 3 4 5 6 5 5 6 6 6 5 7 8 6 7 8 7
10 8 11 12 11 11 9 11 12 12 13 12 11 9 10 11 10 10 11 11 10 10 9 7 2 3 6 7 7 9 12 12 13 13 13 12 12 12 11 5 2 2 2 4 5 6 7 7 8 7 7 6 6 5 5 6 6 6 6 6 6 6 6 5 4 4 5 5 3 5 5 6 8 6 5 5 5 6 6 6 6 7 9 9 7
9 8 9 12 11 10 12 13 12 11 10 9 6 7 9 9 10 10 10 10 10 10 10 10 9 6 8 11 11 9 9 10 11 12 12 12 13 14 8 7 5 7 7 7 7 7 7 7 7 7 6 6 6 6 6 5 6 7 7 7 7 6 5 5 5 4 2 4 4 5 6 5 5 5 4 6 9 7 6 5 5 5 7 8 6
8 7 8 9 11 10 11 10 9 9 8 8 9 10 9 9 10 9 9 9 8 10 11 10 10 8 7 7 10 9 10 10 10 11 12 13 16 11 7 8 8 8 9 9 9 9 9 9 8 8 7 6 5 5 5 6 7 7 7 7 7 7 7 7 3 2 3 4 5 5 6 6 6 5 5 5 5 5 5 6 5 5 5 5 6
9 10 10 11 10 9 9 8 8 7 7 8 10 11 11 10 9 8 8 8 9 10 11 10 10 10 11 10 13 9 7 7 10 9 7 6 5 5 7 7 8 8 9 9 9 9 9 9 8 9 9 7 6 6 6 7 7 7 7 7 6 5 5 3 1 4 4 5 6 6 5 4 4 5 5 5 5 6 5 5 5 6 6 5 6
8 10 12 12 10 9 8 7 7 8 8 8 8 9 7 7 9 7 7 10 9 9 10 9 10 10 11 11 10 10 12 8 7 6 6 5 7 6 7 8 8 9 10 10 9 9 9 8 8 8 7 7 6 5 5 5 5 6 7 4 5 4 3 3 4 4 4 5 5 5 5 5 5 5 5 5 6 5 5 5 5 5 6 6 6
8 8 9 13 9 9 8 7 6 7 7 6 6 6 7 8 10 11 11 11 10 10 9 10 9 9 10 13 12 12 12 10 9 8 6 6 6 8 8 8 9 9 9 9 9 9 9 9 8 8 7 6 5 6 6 5 5 5 6 4 5 5 4 4 5 5 5 5 5 5 6 5 6 5 5 5 6 5 6 6 6 6 6 6 6
7 8 10 10 8 8 7 8 7 8 7 8 7 6 7 8 8 8 9 10 9 9 9 9 8 9 10 12 17 16 12 11 10 9 9 9 9 9 9 9 9 10 10 9 8 8 7 7 7 7 7 8 8 7 7 7 5 4 4 4 4 5 5 4 4 5 5 6 7 6 5 6 6 6 6 6 7 7 6 6 6 6 6 6 6
6 7 8 8 8 8 7 8 8 7 7 8 8 7 7 7 7 9 9 9 8 8 8 9 8 7 10 19 19 20 12 10 10 10 10 9 10 10 10 10 10 10 9 9 9 8 8 8 8 8 6 6 6 5 4 4 3 4 4 5 5 5 6 6 5 5 5 6 5 5 5 5 6 6 6 7 6 6 6 6 7 7 7 7 7
6 7 7 9 9 8 8 7 7 8 7 8 8 6 6 7 8 8 7 7 8 8 8 8 7 7 11 17 17 17 11 11 10 11 11 10 10 10 11 11 10 10 10 9 9 8 8 8 6 7 6 8 8 4 3 4 4 4 4 5 5 5 5 5 5 5 6 6 6 5 5 5 6 6 6 6 6 6 6 6 6 7 6 6 7
7 6 7 8 8 7 7 7 7 7 6 6 6 5 5 5 6 7 7 7 7 6 7 8 8 7 8 11 13 12 11 12 11 11 11 10 9 9 9 9 10 9 9 9 9 9 8 6 6 6 8 7 6 6 7 5 5 4 4 5 6 5 5 5 5 5 6 7 6 6 6 5 6 7 6 6 6 6 6 6 6 6 7 7 6
6 7 8 8 8 7 7 6 6 6 6 6 6 5 5 5 4 6 7 7 8 8 8 8 8 6 7 8 8 10 10 11 10 10 10 10 9 8 8 7 8 9 9 9 9 10 9 6 5 4 4 6 7 6 7 7 7 8 5 5 6 6 5 5 5 5 5 5 6 6 6 7 7 7 8 7 6 6 7 7 6 7 6 6 6
7 7 8 8 8 8 8 7 8 7 7 7 7 6 6 6 6 7 7 8 7 7 7 8 8 8 8 9 9 9 10 10 10 10 8 7 7 7 8 9 9 9 8 7 7 9 6 5 4 4 4 4 6 6 8 9 8 8 9 8 7 6 9 10 7 6 5 5 5 5 6 6 6 7 7 7 7 7 7 6 5 6 6 6 6
6 6 7 8 8 9 9 9 9 8 9 9 9 9 8 8 7 7 7 8 8 8 9 8 8 9 9 8 8 9 9 9 9 8 7 7 7 7 8 8 9 8 9 9 9 6 4 4 4 5 5 5 6 8 7 7 7 7 9 9 8 9 11 9 7 6 5 4 4 4 5 5 6 6 6 5 6 6 5 6 5 5 5 7 7
7 6 7 7 7 7 8 8 8 9 8 8 9 9 9 9 9 9 9 8 6 6 6 6 7 7 8 7 7 7 7 7 7 7 7 8 8 8 7 7 5 4 5 4 5 4 4 5 5 5 5 5 4 5 7 6 6 8 7 9 5 3 6 8 5 6 3 2 3 4 4 5 5 5 5 4 5 5 6 6 6 6 5 6 6
6 6 6 6 6 6 6 6 7 7 7 7 8 9 9 8 8 7 7 7 8 8 8 8 9 9 8 8 8 9 8 8 7 5 4 5 6 6 6 6 5 7 5 5 5 5 7 6 5 4 4 3 4 6 7 7 7 8 9 1 6 7 9 9 6 5 6 2 2 3 4 5 5 5 5 5 5 5 5 5 5 6 6 6 6
6 6 5 6 6 6 5 5 5 6 6 6 7 8 8 8 7 8 8 8 9 9 8 8 8 7 7 7 6 5 5 5 5 5 5 6 7 7 8 8 8 8 6 6 6 6 5 6 5 4 4 4 4 6 7 7 6 1 5 5 7 9 8 7 5 7 5 2 2 3 4 5 5 5 5 5 5 5 5 5 5 5 5 6 7
5 5 6 6 7 7 6 6 6 7 7 7 7 7 8 8 9 8 8 8 7 6 6 6 6 6 6 6 6 5 6 6 6 7 7 7 9 9 9 8 8 8 9 9 8 7 7 7 4 4 4 4 4 4 4 2 6 5 6 9 9 9 8 7 4 6 6 4 2 3 4 4 5 5 5 4 4 4 4 5 5 5 6 7 7
Wind_Direction
162 157 148 148 142 161 159 157 153 154 155 149 134 129 127 133 145 152 151 149 147 149 145 142 141 139 137 138 133 133 132 132 128 124 122 120 115 118 126 120 118 115 115 117 118 112 102 97 95 80 54 44 56 76 40 53 74 49 27 21 26 14 1 348 341 333 333 337 329 334 333 341 335 341 339 339 338 339 335 336 340 341 339 336 328
160 150 139 147 160 161 160 154 153 154 149 134 129 123 125 139 145 150 146 146 153 147 146 141 140 143 141 138 138 137 137 132 132 126 123 122 122 123 123 124 119 127 129 112 104 102 96 93 92 76 59 48 23 35 29 30 36 33 42 13 22 4 3 346 339 327 326 329 332 330 336 345 331 342 342 341 337 335 334 340 339 339 335 337 338
156 147 145 162 159 160 156 155 155 155 142 133 127 128 130 139 148 158 143 152 148 151 143 147 146 143 141 139 140 140 137 133 129 128 127 130 129 128 126 122 126 130 135 132 123 119 116 111 97 87 75 73 60 47 27 23 28 32 15 14 8 1 350 341 327 328 326 324 330 332 343 339 338 340 342 343 337 334 333 338 340 335 333 339 336
158 148 149 161 164 159 159 158 157 156 143 135 134 135 140 146 155 160 149 149 150 147 150 148 146 145 143 141 141 141 136 134 135 136 137 134 134 131 128 134 140 137 130 132 131 121 115 112 104 96 87 62 36 58 37 19 45 32 3 358 357 6 340 322 325 321 319 317 332 331 338 335 339 337 340 340 339 334 333 332 334 333 335 339 335
154 150 157 161 162 161 159 158 157 148 132 133 132 136 142 150 164 159 147 152 149 150 152 148 147 146 145 145 144 142 140 141 140 137 134 139 134 133 139 138 138 134 118 115 119 117 109 99 96 90 73 64 49 30 43 20 22 35 8 354 352 356 334 328 327 323 320 320 323 332 336 338 339 337 341 340 339 334 334 334 336 335 335 333 332
162 151 159 156 159 160 159 158 157 143 135 133 134 139 143 150 154 151 152 151 152 156 152 152 151 149 152 147 145 144 143 144 142 142 142 139 137 138 132 135 132 129 136 133 121 118 116 99 92 83 70 62 45 32 17 19 13 23 13 353 351 346 331 329 328 328 323 325 327 333 338 341 341 343 343 342 338 335 335 334 331 334 334 333 332
155 155 160 161 162 162 160 157 151 140 136 136 137 140 146 150 155 157 156 154 157 157 155 152 153 155 150 148 148 147 145 148 145 146 143 143 140 138 140 139 137 138 137 128 127 126 115 102 91 75 65 57 49 30 13 10 10 20 9 355 351 341 335 340 333 334 335 331 335 342 337 344 345 341 343 341 338 336 337 333 334 337 336 336 332
155 159 159 161 158 159 159 157 154 138 135 136 137 139 144 152 159 157 157 158 161 159 158 153 154 155 147 151 146 146 148 152 152 151 148 144 145 145 144 144 140 142 136 132 129 123 116 104 85 74 67 52 40 38 22 5 356 17 9 358 350 345 344 340 343 342 341 340 344 345 344 341 345 342 336 339 337 337 341 335 332 335 338 334 335
160 159 157 156 156 155 153 153 144 129 132 135 135 139 149 157 161 157 160 161 164 162 156 155 158 152 150 150 148 149 155 154 158 159 149 149 149 150 149 148 148 148 144 142 140 129 115 98 87 85 81 94 74 56 34 354 353 11 9 4 355 354 348 345 349 348 344 341 348 347 342 345 346 343 341 345 343 337 332 334 329 331 330 330 330
157 157 155 154 154 152 146 136 128 132 136 141 143 148 154 158 164 160 165 165 166 162 160 159 160 155 156 153 151 154 156 155 72 80 134 154 152 149 149 149 157 153 155 150 148 136 120 108 107 125 157 179 174 167 177 197 313 340 9 11 5 0 353 348 349 351 345 342 353 345 346 345 345 343 340 340 333 330 329 333 332 332 331 330 325
155 153 148 151 148 138 133 134 134 138 143 145 148 154 154 161 168 167 167 169 167 163 163 162 162 160 160 156 154 158 159 107 90 74 59 122 148 147 152 158 158 157 157 160 154 150 144 137 148 175 194 195 202 202 193 204 203 216 243 274 306 345 1 349 346 348 346 342 344 348 344 342 342 338 342 338 334 332 330 331 330 332 335 336 334
157 157 146 142 141 139 137 139 144 147 150 152 156 158 160 168 176 174 169 170 168 166 166 167 164 161 162 157 155 161 135 106 99 93 84 63 24 144 155 155 161 164 172 165 164 159 150 149 143 143 168 168 220 188 202 205 211 209 209 212 223 256 273 306 337 342 345 336 338 343 340 345 333 339 341 336 333 328 331 330 332 331 331 332 331
159 148 147 153 147 147 145 148 149 152 156 155 159 160 170 180 184 179 178 170 167 169 171 168 165 163 162 159 158 158 129 121 109 109 98 27 344 328 159 156 168 173 172 175 166 162 158 157 163 172 138 202 253 342 209 193 212 221 211 207 226 233 251 268 260 264 312 319 331 329 345 337 332 337 336 328 328 326 328 329 330 325 328 326 326
147 148 151 148 144 150 155 159 160 160 160 161 164 170 182 190 183 182 177 174 171 170 172 169 167 165 166 159 149 138 120 124 124 124 137 239 322 344 175 164 163 165 167 162 170 162 164 167 169 170 151 121 53 358 333 317 258 216 207 206 217 216 227 240 249 252 255 270 316 329 331 333 327 325 321 321 325 330 328 324 323 324 329 326 320
152 148 146 144 143 152 160 162 162 163 165 166 172 184 191 187 180 181 181 178 173 173 172 171 168 165 159 148 127 119 143 151 144 152 172 227 280 313 221 154 154 157 165 173 169 160 169 173 153 144 132 85 55 9 334 327 306 300 325 349 310 198 199 208 242 304 313 308 325 321 315 312 311 306 309 310 314 316 319 316 316 323 323 318 324
150 145 145 152 158 165 167 165 164 167 168 175 186 193 188 184 182 181 181 174 173 171 171 170 164 161 159 153 153 158 148 154 147 164 181 215 245 254 214 165 167 163 170 175 166 168 171 177 173 149 125 100 96 356 332 320 293 294 338 323 302 262 41 166 230 232 248 291 304 301 293 287 276 279 282 289 292 291 302 311 318 329 327 334 338
153 153 156 162 167 169 174 177 180 181 184 186 188 188 185 184 178 184 179 173 173 171 167 165 162 165 162 161 164 163 157 168 161 173 188 205 222 241 200 179 172 170 173 181 180 164 179 183 189 160 143 110 92 336 324 315 289 318 330 310 293 349 15 353 207 227 243 247 252 254 259 262 267 268 269 269 262 270 287 315 335 333 334 336 339
159 160 166 171 171 177 179 182 183 185 185 189 190 178 181 179 183 181 175 168 165 165 164 164 171 174 170 171 174 171 168 172 172 176 191 201 221 228 212 188 171 179 172 186 184 166 87 48 346 263 148 115 120 315 312 312 290 37 307 337 335 6 5 346 334 281 218 232 241 245 248 255 259 262 260 260 265 265 307 333 331 332 334 335 334
171 169 172 174 178 181 184 182 181 176 178 180 188 180 184 183 180 176 177 174 167 164 167 172 176 178 178 182 185 184 168 169 179 179 190 198 213 234 240 193 176 187 177 189 194 154 145 152 60 14 78 114 121 266 302 315 312 50 327 338 347 5 1 337 328 325 327 324 323 314 301 270 281 317 350 327 298 295 340 330 330 336 335 332 332
173 171 170 173 175 178 168 180 175 175 174 174 171 164 171 164 167 167 168 174 171 171 174 176 177 179 180 191 184 203 168 170 179 184 187 199 212 231 236 214 182 189 192 184 193 169 162 162 146 132 121 136 159 240 284 298 315 332 341 10 357 348 345 324 308 309 305 307 321 326 327 335 333 334 345 345 347 348 337 334 336 339 334 331 334
170 168 168 169 172 171 168 168 168 167 165 158 151 152 156 155 157 157 159 165 166 169 173 173 178 183 184 196 186 200 176 172 172 183 188 197 210 224 244 263 201 186 203 186 197 183 179 180 170 155 162 165 189 204 268 282 289 296 324 15 358 329 315 300 301 291 287 316 323 328 338 338 343 342 342 343 345 344 334 333 341 339 334 333 334
164 157 159 159 153 149 151 154 159 161 155 147 148 148 149 151 151 152 170 170 171 172 175 178 182 187 189 193 190 195 177 165 171 182 187 196 210 216 233 240 6 295 196 206 202 194 194 189 159 164 169 169 191 204 225 266 289 286 74 90 299 301 287 294 287 284 317 327 327 334 339 340 346 343 342 342 342 338 331 334 340 335 333 335 333
150 152 152 150 150 149 146 146 146 146 149 155 155 155 155 157 160 166 176 175 175 178 178 186 183 188 187 188 193 193 192 167 161 175 189 194 207 214 229 254 312 314 252 202 218 202 201 130 126 155 168 173 189 205 224 252 267 255 92 284 276 275 280 277 276 297 330 321 326 339 338 343 344 345 345 340 335 332 331 339 334 333 331 331 329
139 138 137 140 142 146 147 147 145 148 152 153 154 153 156 159 164 172 179 181 179 184 184 188 186 187 187 186 189 190 191 176 160 171 179 194 205 215 222 232 255 272 314 279 214 216 200 150 143 158 162 174 197 205 232 237 263 303 281 271 268 273 275 276 269 326 315 323 331 338 338 344 345 344 346 337 332 329 338 336 332 330 332 331 329
148 145 142 135 131 133 138 143 146 149 152 153 153 160 163 165 170 178 185 188 186 189 188 189 191 188 189 189 189 186 184 181 168 168 172 184 199 214 212 212 247 274 269 280 21 21 80 102 132 150 154 180 209 235 245 248 248 255 264 266 267 271 267 266 327 323 321 324 332 331 337 346 343 347 339 333 331 336 341 337 333 329 334 330 328
158 158 151 145 140 140 142 150 155 154 155 163 167 170 168 168 173 179 185 191 192 193 191 190 193 191 189 192 189 187 181 183 175 166 169 174 192 204 202 198 241 264 296 311 348 351 26 111 121 128 140 195 220 230 237 241 221 228 239 246 256 258 264 307 320 324 319 317 323 333 339 339 342 345 334 338 345 347 346 342 338 338 338 337 334
159 156 153 148 145 146 144 148 157 165 172 176 178 174 173 177 181 182 186 192 197 196 195 192 194 195 192 192 190 186 183 187 178 167 179 179 193 179 187 199 205 265 272 242 221 200 182 173 136 177 251 209 227 276 293 287 231 225 230 230 237 245 252 323 316 316 304 302 329 335 334 336 335 336 342 346 349 348 347 343 343 341 340 339 337
158 155 150 146 145 149 153 161 168 175 179 180 178 178 181 187 187 185 186 193 200 201 199 195 195 198 194 191 187 190 186 193 183 175 180 183 191 196 200 206 204 215 220 220 222 222 202 156 142 210 222 224 227 231 234 234 240 243 245 232 222 240 257 230 233 252 259 326 321 324 323 335 333 340 340 347 348 344 341 346 343 340 344 341 343
156 150 148 147 147 153 157 165 166 169 172 177 179 188 191 194 188 187 189 195 203 206 203 195 198 203 198 192 189 190 195 194 195 164 173 173 182 188 192 195 199 202 207 212 226 207 208 202 210 213 222 226 229 234 231 228 228 230 233 244 250 262 272 333 316 283 316 326 316 319 321 335 329 333 341 341 347 339 338 344 340 341 344 346 347
169 152 154 156 157 160 166 169 175 174 172 176 166 162 41 50 174 196 194 131 71 60 62 151 194 203 197 188 159 192 202 190 120 132 145 163 166 155 174 187 185 196 171 170 279 225 206 213 216 216 222 225 228 237 244 243 245 246 258 221 246 255 257 302 282 274 345 305 294 303 325 322 322 335 335 337 335 329 333 345 338 341 343 347 347
169 156 156 164 159 162 163 171 170 171 175 178 172 184 166 115 51 36 29 139 100 81 82 78 62 48 37 137 87 67 79 101 119 124 130 121 108 106 99 100 99 85 131 171 225 233 218 223 228 234 228 233 232 233 243 256 262 269 269 269 261 275 253 253 260 280 277 275 284 302 314 312 318 322 326 324 324 321 332 340 335 339 343 345 346
167 161 163 170 156 172 175 171 171 174 177 182 182 188 183 178 114 39 30 73 98 98 90 83 79 77 64 72 99 81 91 116 132 144 148 130 115 107 101 93 86 86 45 49 204 217 238 254 254 249 248 240 241 248 250 255 256 254 253 253 259 262 267 263 245 281 282 280 297 311 299 300 307 312 317 316 319 323 330 332 330 336 338 342 342
164 163 169 164 171 176 175 175 177 179 183 184 184 183 181 184 185 174 75 49 72 89 97 101 112 108 104 104 124 144 157 145 140 144 154 143 124 113 104 97 102 107 102 141 204 218 233 245 247 243 241 246 245 240 238 243 246 247 258 269 264 255 249 246 173 256 258 257 273 276 289 303 309 315 310 314 320 321 323 325 325 331 336 337 337
166 170 175 176 174 180 188 184 186 191 190 184 183 189 193 197 194 188 179 170 124 69 57 45 134 128 106 114 134 143 138 149 152 150 155 154 141 131 113 95 76 41 29 197 200 225 243 257 265 260 251 249 248 243 242 246 259 266 267 271 274 275 267 257 252 251 260 286 283 299 305 310 323 313 312 312 310 315 322 324 324 328 334 334 332
166 151 155 170 178 181 184 192 193 193 190 187 186 196 197 201 204 202 196 190 190 192 193 186 193 217 136 111 98 149 152 152 153 155 155 152 141 135 117 119 150 184 179 230 229 229 235 248 259 264 261 262 260 264 267 264 262 267 266 263 266 267 271 270 272 283 276 280 302 306 316 307 297 297 302 306 312 314 317 316 320 327 327 327 327
164 153 159 169 177 184 188 192 194 192 186 179 174 181 194 198 203 208 205 193 191 199 197 195 185 173 161 132 134 139 148 152 149 150 150 147 149 149 169 190 187 195 201 206 217 230 248 260 272 269 264 252 255 257 254 257 256 256 257 258 257 263 265 268 266 263 276 301 303 298 291 297 306 303 301 296 295 295 296 307 319 320 315 314 321
146 144 151 160 185 185 186 186 186 181 176 173 176 187 196 207 207 215 218 208 200 213 210 193 176 150 173 164 146 151 156 156 149 143 152 159 165 172 194 188 190 189 203 208 208 213 222 235 246 259 264 269 262 259 262 261 260 258 259 264 272 270 269 266 291 323 318 288 285 291 286 275 272 282 286 294 300 305 314 314 312 307 305 302 292
171 169 174 172 171 170 175 179 177 172 178 181 189 192 195 203 196 194 207 215 209 212 209 201 175 169 178 186 156 161 140 117 106 101 116 144 177 199 201 198 193 196 205 212 209 209 211 216 225 231 238 241 243 244 250 254 257 260 261 261 257 255 250 271 297 268 252 249 251 252 264 291 311 310 306 304 306 300 301 306 308 307 303 296 299
186 153 153 150 163 167 171 169 164 176 182 187 193 201 187 200 207 186 200 214 209 213 212 209 197 190 182 172 164 152 141 168 180 177 169 178 186 201 207 201 202 206 208 212 210 211 217 220 222 227 231 233 235 240 241 245 254 262 266 266 266 268 255 244 241 243 259 274 281 289 298 306 308 310 310 306 299 300 303 308 302 298 302 302 299
187 140 147 154 170 167 168 162 161 172 172 177 179 186 165 190 204 204 207 213 215 212 208 216 199 193 182 169 163 164 184 185 186 179 177 179 189 198 206 209 210 214 216 218 217 214 216 223 226 228 228 230 236 245 248 246 248 252 258 263 268 264 256 257 264 265 267 279 293 297 294 296 300 303 304 302 304 313 313 303 298 289 283 293 299
197 150 144 166 174 169 169 166 171 180 175 177 175 184 189 185 199 194 208 215 214 205 208 214 203 193 190 168 161 168 182 184 179 187 184 187 189 199 204 211 213 218 221 222 223 225 227 227 228 228 231 230 226 228 235 242 248 256 262 270 270 267 266 265 266 274 270 262 262 276 291 296 294 293 298 305 303 296 291 293 295 305 311 310 305
172 128 152 167 163 171 170 178 185 183 180 180 188 199 198 189 193 208 210 209 207 204 201 208 204 203 148 148 160 171 183 188 189 194 195 190 194 200 205 210 215 217 219 220 220 219 224 226 228 231 232 232 230 230 237 246 256 266 268 265 261 259 257 259 260 261 269 279 282 276 276 280 284 291 287 274 274 279 287 296 306 307 303 301 300
167 145 163 165 172 173 170 168 182 188 185 180 192 194 204 195 198 204 201 205 210 204 200 200 198 188 147 160 165 175 191 194 194 199 204 199 200 203 205 210 213 218 219 220 218 219 221 226 229 231 231 230 227 226 222 238 244 248 250 250 253 255 257 261 269 272 268 268 274 285 291 285 275 266 279 292 295 294 285 283 281 287 289 294 293
139 157 160 167 169 166 165 167 171 176 183 176 178 185 197 183 195 202 202 200 202 193 199 200 205 193 156 168 165 179 196 203 205 206 207 206 202 203 207 207 210 209 209 210 216 222 228 228 224 223 227 231 230 232 237 238 240 234 239 249 253 247 244 248 254 265 272 276 280 284 285 283 280 275 271 268 270 279 293 298 301 300 292 289 289
170 166 159 166 169 171 171 170 173 167 160 148 179 185 197 188 183 203 201 201 194 196 202 209 203 195 145 159 173 188 195 204 209 210 207 204 204 202 203 203 205 208 209 215 221 224 224 228 226 216 212 226 231 234 239 246 249 253 249 242 244 253 257 257 253 257 264 275 280 280 278 278 275 275 282 288 289 287 286 294 299 306 302 293 293
177 163 162 163 168 170 171 172 173 168 170 179 182 188 195 195 193 206 203 207 198 195 194 196 196 199 179 173 181 186 196 204 209 212 207 198 198 202 206 210 210 210 213 218 223 223 221 219 213 216 214 219 231 239 245 249 250 249 252 253 249 240 244 249 249 245 245 251 259 270 278 278 275 275 278 280 282 286 286 287 285 282 285 291 287
169 168 167 170 176 176 178 175 178 181 178 182 186 189 190 193 198 198 201 209 206 194 199 196 197 206 205 188 180 185 194 201 205 197 191 197 198 208 215 219 218 218 217 217 219 219 211 210 216 214 215 215 227 238 248 249 248 247 245 250 248 248 249 252 249 257 268 254 251 258 272 279 286 289 291 292 292 287 292 293 297 300 293 289 288
192 179 174 173 174 176 176 178 172 173 184 184 191 193 196 196 198 203 203 193 175 175 187 187 194 196 199 194 180 181 187 199 201 202 197 199 207 210 214 215 215 214 215 208 208 214 214 203 208 213 216 217 215 233 242 249 245 250 252 254 276 351 20 9 302 299 318 323 289 284 268 264 268 274 284 299 305 307 304 297 294 296 300 304 301
190 181 171 168 173 172 170 174 164 173 185 183 184 195 199 198 192 188 187 190 189 188 190 197 201 206 204 206 206 205 195 192 194 187 185 190 204 212 213 212 203 205 208 212 211 211 209 206 200 205 206 209 219 226 232 239 245 243 250 297 45 28 38 25 11 18 11 325 301 290 289 286 284 279 277 272 272 273 281 291 296 294 290 289 294
182 179 172 164 169 170 165 164 160 171 189 197 191 194 193 195 198 200 199 198 196 197 198 199 200 200 201 200 190 174 162 172 185 196 205 212 214 215 216 212 209 205 208 213 213 209 203 204 205 206 207 212 215 217 220 226 238 308 53 59 44 48 30 25 63 42 357 337 318 294 290 287 286 288 288 295 295 295 286 287 296 305 308 304 296
185 177 171 172 174 172 172 178 184 195 196 199 203 198 194 201 208 203 199 194 191 181 177 178 184 190 194 191 182 185 184 194 202 206 206 209 212 210 210 207 197 196 206 210 211 209 210 209 204 194 198 206 214 223 234 51 57 63 65 59 53 43 39 21 27 20 6 344 309 295 280 281 278 279 279 280 286 294 311 324 318 307 298 296 296